Time,TemperatureF,DewpointF,PressureIn,WindDirection,WindDirectionDegrees,WindSpeedMPH,WindSpeedGustMPH,Humidity,HourlyPrecipIn,Conditions,Clouds,dailyrainin,SoftwareType,DateUTC
2013-06-08 00:12:00,53.0,42.0,-100.00,WNW,303,6.0,12.0,67,-99.99,,,0.00,,2013-06-08 06:12:00,
2013-06-08 00:22:00,53.0,42.0,-100.00,WNW,303,6.0,12.0,67,-99.99,,,0.00,,2013-06-08 06:22:00,
2013-06-08 00:32:00,53.0,42.0,-100.00,WNW,303,6.0,12.0,67,-99.99,,,0.00,,2013-06-08 06:32:00,
2013-06-08 00:42:00,53.0,42.0,-100.00,WNW,303,6.0,12.0,67,-99.99,,,0.00,,2013-06-08 06:42:00,
2013-06-08 00:52:00,53.0,42.0,-100.00,WNW,303,6.0,12.0,67,-99.99,,,0.00,,2013-06-08 06:52:00,
2013-06-08 01:12:00,51.0,41.0,-100.00,NNE,23,4.0,5.0,68,0.00,,,0.00,,2013-06-08 07:12:00,
2013-06-08 01:22:00,51.0,41.0,-100.00,NNE,23,4.0,5.0,68,0.00,,,0.00,,2013-06-08 07:22:00,
2013-06-08 02:12:00,59.0,37.0,-100.00,North,358,8.0,13.0,44,-99.99,,,0.00,,2013-06-08 08:12:00,
2013-06-08 02:22:00,59.0,37.0,-100.00,North,358,8.0,13.0,44,-99.99,,,0.00,,2013-06-08 08:22:00,
2013-06-08 02:32:00,59.0,37.0,-100.00,North,358,8.0,13.0,44,-99.99,,,0.00,,2013-06-08 08:32:00,
2013-06-08 02:42:00,59.0,37.0,-100.00,North,358,8.0,13.0,44,-99.99,,,0.00,,2013-06-08 08:42:00,
2013-06-08 02:52:00,59.0,37.0,-100.00,North,358,8.0,13.0,44,-99.99,,,0.00,,2013-06-08 08:52:00,
2013-06-08 03:12:00,57.0,35.0,-100.00,NNE,28,12.0,22.0,44,0.00,,,0.00,,2013-06-08 09:12:00,
2013-06-08 03:22:00,57.0,35.0,-100.00,NNE,28,12.0,22.0,44,0.00,,,0.00,,2013-06-08 09:22:00,
2013-06-08 03:33:00,57.0,35.0,-100.00,NNE,28,12.0,22.0,44,0.00,,,0.00,,2013-06-08 09:33:00,
2013-06-08 03:42:00,57.0,35.0,-100.00,NNE,28,12.0,22.0,44,0.00,,,0.00,,2013-06-08 09:42:00,
2013-06-08 03:52:00,57.0,35.0,-100.00,NNE,28,12.0,22.0,44,0.00,,,0.00,,2013-06-08 09:52:00,
2013-06-08 04:12:00,56.0,36.0,-100.00,NNE,17,13.0,21.0,46,0.00,,,0.00,,2013-06-08 10:12:00,
2013-06-08 04:22:00,56.0,36.0,-100.00,NNE,17,13.0,21.0,46,0.00,,,0.00,,2013-06-08 10:22:00,
2013-06-08 04:33:00,56.0,36.0,-100.00,NNE,17,13.0,21.0,46,0.00,,,0.00,,2013-06-08 10:33:00,
2013-06-08 04:42:00,56.0,36.0,-100.00,NNE,17,13.0,21.0,46,0.00,,,0.00,,2013-06-08 10:42:00,
2013-06-08 04:52:00,56.0,36.0,-100.00,NNE,17,13.0,21.0,46,0.00,,,0.00,,2013-06-08 10:52:00,
2013-06-08 05:12:00,54.0,34.0,-100.00,NNE,27,6.0,12.0,48,0.00,,,0.00,,2013-06-08 11:12:00,
2013-06-08 05:22:00,54.0,34.0,-100.00,NNE,27,6.0,12.0,48,0.00,,,0.00,,2013-06-08 11:22:00,
2013-06-08 05:32:00,54.0,34.0,-100.00,NNE,27,6.0,12.0,48,0.00,,,0.00,,2013-06-08 11:32:00,
2013-06-08 05:42:00,54.0,34.0,-100.00,NNE,27,6.0,12.0,48,0.00,,,0.00,,2013-06-08 11:42:00,
2013-06-08 05:52:00,54.0,34.0,-100.00,NNE,27,6.0,12.0,48,0.00,,,0.00,,2013-06-08 11:52:00,
2013-06-08 06:12:00,48.0,37.0,-100.00,NW,317,1.0,4.0,65,0.00,,,-99.99,,2013-06-08 12:12:00,
2013-06-08 06:22:00,48.0,37.0,-100.00,NW,317,1.0,4.0,65,0.00,,,-99.99,,2013-06-08 12:22:00,
2013-06-08 06:32:00,48.0,37.0,-100.00,NW,317,1.0,4.0,65,0.00,,,-99.99,,2013-06-08 12:32:00,
2013-06-08 06:42:00,48.0,37.0,-100.00,NW,317,1.0,4.0,65,0.00,,,-99.99,,2013-06-08 12:42:00,
2013-06-08 06:52:00,48.0,37.0,-100.00,NW,317,1.0,4.0,65,0.00,,,-99.99,,2013-06-08 12:52:00,
2013-06-08 07:12:00,49.0,40.0,-100.00,SSW,211,2.0,4.0,72,0.00,,,0.00,,2013-06-08 13:12:00,
2013-06-08 07:22:00,49.0,40.0,-100.00,SSW,211,2.0,4.0,72,0.00,,,0.00,,2013-06-08 13:22:00,
2013-06-08 07:32:00,49.0,40.0,-100.00,SSW,211,2.0,4.0,72,0.00,,,0.00,,2013-06-08 13:32:00,
2013-06-08 07:42:00,49.0,40.0,-100.00,SSW,211,2.0,4.0,72,0.00,,,0.00,,2013-06-08 13:42:00,
2013-06-08 07:52:00,49.0,40.0,-100.00,SSW,211,2.0,4.0,72,0.00,,,0.00,,2013-06-08 13:52:00,
2013-06-08 08:12:00,59.0,37.0,-100.00,ENE,76,4.0,5.0,45,0.00,,,0.00,,2013-06-08 14:12:00,
2013-06-08 08:22:00,59.0,37.0,-100.00,ENE,76,4.0,5.0,45,0.00,,,0.00,,2013-06-08 14:22:00,
2013-06-08 08:32:00,59.0,37.0,-100.00,ENE,76,4.0,5.0,45,0.00,,,0.00,,2013-06-08 14:32:00,
2013-06-08 08:42:00,59.0,37.0,-100.00,ENE,76,4.0,5.0,45,0.00,,,0.00,,2013-06-08 14:42:00,
2013-06-08 08:52:00,59.0,37.0,-100.00,ENE,76,4.0,5.0,45,0.00,,,0.00,,2013-06-08 14:52:00,
2013-06-08 09:12:00,62.0,37.0,-100.00,WSW,243,1.0,4.0,39,0.00,,,0.00,,2013-06-08 15:12:00,
2013-06-08 09:22:00,62.0,37.0,-100.00,WSW,243,1.0,4.0,39,0.00,,,0.00,,2013-06-08 15:22:00,
2013-06-08 09:32:00,62.0,37.0,-100.00,WSW,243,1.0,4.0,39,0.00,,,0.00,,2013-06-08 15:32:00,
2013-06-08 09:42:00,62.0,37.0,-100.00,WSW,243,1.0,4.0,39,0.00,,,0.00,,2013-06-08 15:42:00,
2013-06-08 09:53:00,62.0,37.0,-100.00,WSW,243,1.0,4.0,39,0.00,,,0.00,,2013-06-08 15:53:00,
2013-06-08 10:12:00,63.0,36.0,-100.00,WSW,241,5.0,8.0,36,0.00,,,0.00,,2013-06-08 16:12:00,
2013-06-08 10:23:00,63.0,36.0,-100.00,WSW,241,5.0,8.0,36,0.00,,,0.00,,2013-06-08 16:23:00,
2013-06-08 10:32:00,63.0,36.0,-100.00,WSW,241,5.0,8.0,36,0.00,,,0.00,,2013-06-08 16:32:00,
2013-06-08 10:42:00,63.0,36.0,-100.00,WSW,241,5.0,8.0,36,0.00,,,0.00,,2013-06-08 16:42:00,
2013-06-08 10:53:00,63.0,36.0,-100.00,WSW,241,5.0,8.0,36,0.00,,,0.00,,2013-06-08 16:53:00,
2013-06-08 11:12:00,65.0,38.0,-100.00,SSW,194,4.0,7.0,37,0.00,,,0.00,,2013-06-08 17:12:00,
2013-06-08 11:22:00,65.0,38.0,-100.00,SSW,194,4.0,7.0,37,0.00,,,0.00,,2013-06-08 17:22:00,
2013-06-08 11:32:00,65.0,38.0,-100.00,SSW,194,4.0,7.0,37,0.00,,,0.00,,2013-06-08 17:32:00,
2013-06-08 11:42:00,65.0,38.0,-100.00,SSW,194,4.0,7.0,37,0.00,,,0.00,,2013-06-08 17:42:00,
2013-06-08 11:52:00,65.0,38.0,-100.00,SSW,194,4.0,7.0,37,0.00,,,0.00,,2013-06-08 17:52:00,
2013-06-08 12:12:00,65.0,34.0,-100.00,West,278,6.0,12.0,32,0.00,,,0.00,,2013-06-08 18:12:00,
2013-06-08 12:22:00,65.0,34.0,-100.00,West,278,6.0,12.0,32,0.00,,,0.00,,2013-06-08 18:22:00,
2013-06-08 12:32:00,65.0,34.0,-100.00,West,278,6.0,12.0,32,0.00,,,0.00,,2013-06-08 18:32:00,
2013-06-08 12:41:00,65.0,34.0,-100.00,West,278,6.0,12.0,32,0.00,,,0.00,,2013-06-08 18:41:00,
2013-06-08 12:52:00,65.0,34.0,-100.00,West,278,6.0,12.0,32,0.00,,,0.00,,2013-06-08 18:52:00,
2013-06-08 13:12:00,67.0,39.0,-100.00,SSE,166,5.0,10.0,36,0.00,,,0.00,,2013-06-08 19:12:00,
2013-06-08 13:22:00,67.0,39.0,-100.00,SSE,166,5.0,10.0,36,0.00,,,0.00,,2013-06-08 19:22:00,
2013-06-08 13:32:00,67.0,39.0,-100.00,SSE,166,5.0,10.0,36,0.00,,,0.00,,2013-06-08 19:32:00,
2013-06-08 13:42:00,67.0,39.0,-100.00,SSE,166,5.0,10.0,36,0.00,,,0.00,,2013-06-08 19:42:00,
2013-06-08 13:52:00,67.0,39.0,-100.00,SSE,166,5.0,10.0,36,0.00,,,0.00,,2013-06-08 19:52:00,
2013-06-08 14:12:00,70.0,36.0,-100.00,SW,231,10.0,17.0,28,0.00,,,0.00,,2013-06-08 20:12:00,
2013-06-08 14:22:00,70.0,36.0,-100.00,SW,231,10.0,17.0,28,0.00,,,0.00,,2013-06-08 20:22:00,
2013-06-08 14:32:00,70.0,36.0,-100.00,SW,231,10.0,17.0,28,0.00,,,0.00,,2013-06-08 20:32:00,
2013-06-08 14:42:00,70.0,36.0,-100.00,SW,231,10.0,17.0,28,0.00,,,0.00,,2013-06-08 20:42:00,
2013-06-08 14:52:00,70.0,36.0,-100.00,SW,231,10.0,17.0,28,0.00,,,0.00,,2013-06-08 20:52:00,
2013-06-08 15:12:00,72.0,33.0,-100.00,SW,232,7.0,14.0,24,0.00,,,0.00,,2013-06-08 21:12:00,
2013-06-08 15:22:00,72.0,33.0,-100.00,SW,232,7.0,14.0,24,0.00,,,0.00,,2013-06-08 21:22:00,
2013-06-08 15:33:00,72.0,33.0,-100.00,SW,232,7.0,14.0,24,0.00,,,0.00,,2013-06-08 21:33:00,
2013-06-08 15:43:00,72.0,33.0,-100.00,SW,232,7.0,14.0,24,0.00,,,0.00,,2013-06-08 21:43:00,
2013-06-08 15:52:00,72.0,33.0,-100.00,SW,232,7.0,14.0,24,0.00,,,0.00,,2013-06-08 21:52:00,
2013-06-08 16:12:00,74.0,28.0,-100.00,NE,37,9.0,22.0,18,0.00,,,0.00,,2013-06-08 22:12:00,
2013-06-08 16:22:00,74.0,28.0,-100.00,NE,37,9.0,22.0,18,0.00,,,0.00,,2013-06-08 22:22:00,
2013-06-08 16:33:00,74.0,28.0,-100.00,NE,37,9.0,22.0,18,0.00,,,0.00,,2013-06-08 22:33:00,
2013-06-08 16:42:00,74.0,28.0,-100.00,NE,37,9.0,22.0,18,0.00,,,0.00,,2013-06-08 22:42:00,
2013-06-08 16:52:00,74.0,28.0,-100.00,NE,37,9.0,22.0,18,0.00,,,0.00,,2013-06-08 22:52:00,
2013-06-08 17:12:00,75.0,30.0,-100.00,West,276,9.0,20.0,19,0.00,,,0.00,,2013-06-08 23:12:00,
2013-06-08 17:22:00,75.0,30.0,-100.00,West,276,9.0,20.0,19,0.00,,,0.00,,2013-06-08 23:22:00,
2013-06-08 17:32:00,75.0,30.0,-100.00,West,276,9.0,20.0,19,0.00,,,0.00,,2013-06-08 23:32:00,
2013-06-08 17:42:00,75.0,30.0,-100.00,West,276,9.0,20.0,19,0.00,,,0.00,,2013-06-08 23:42:00,
2013-06-08 17:52:00,75.0,30.0,-100.00,West,276,9.0,20.0,19,0.00,,,0.00,,2013-06-08 23:52:00,
2013-06-08 18:12:00,73.0,44.0,-100.00,SSW,211,9.0,17.0,35,0.00,,,0.00,,2013-06-09 00:12:00,
2013-06-08 18:22:00,73.0,44.0,-100.00,SSW,211,9.0,17.0,35,0.00,,,0.00,,2013-06-09 00:22:00,
2013-06-08 18:32:00,73.0,44.0,-100.00,SSW,211,9.0,17.0,35,0.00,,,0.00,,2013-06-09 00:32:00,
2013-06-08 18:42:00,73.0,44.0,-100.00,SSW,211,9.0,17.0,35,0.00,,,0.00,,2013-06-09 00:42:00,
2013-06-08 18:51:00,73.0,44.0,-100.00,SSW,211,9.0,17.0,35,0.00,,,0.00,,2013-06-09 00:51:00,
2013-06-08 19:12:00,71.0,42.0,-100.00,SSW,204,10.0,17.0,34,0.00,,,0.00,,2013-06-09 01:12:00,
2013-06-08 19:22:00,71.0,42.0,-100.00,SSW,204,10.0,17.0,34,0.00,,,0.00,,2013-06-09 01:22:00,
2013-06-08 19:32:00,71.0,42.0,-100.00,SSW,204,10.0,17.0,34,0.00,,,0.00,,2013-06-09 01:32:00,
2013-06-08 19:42:00,71.0,42.0,-100.00,SSW,204,10.0,17.0,34,0.00,,,0.00,,2013-06-09 01:42:00,
2013-06-08 19:52:00,71.0,42.0,-100.00,SSW,204,10.0,17.0,34,0.00,,,0.00,,2013-06-09 01:52:00,
2013-06-08 20:12:00,70.0,41.0,-100.00,SSW,194,10.0,17.0,34,0.00,,,0.00,,2013-06-09 02:12:00,
2013-06-08 20:22:00,70.0,41.0,-100.00,SSW,194,10.0,17.0,34,0.00,,,0.00,,2013-06-09 02:22:00,
2013-06-08 20:32:00,70.0,41.0,-100.00,SSW,194,10.0,17.0,34,0.00,,,0.00,,2013-06-09 02:32:00,
2013-06-08 20:42:00,70.0,41.0,-100.00,SSW,194,10.0,17.0,34,0.00,,,0.00,,2013-06-09 02:42:00,
2013-06-08 20:52:00,70.0,41.0,-100.00,SSW,194,10.0,17.0,34,0.00,,,0.00,,2013-06-09 02:52:00,
2013-06-08 21:12:00,64.0,44.0,-100.00,South,172,5.0,8.0,47,0.00,,,0.00,,2013-06-09 03:12:00,
2013-06-08 21:22:00,64.0,44.0,-100.00,South,172,5.0,8.0,47,0.00,,,0.00,,2013-06-09 03:22:00,
2013-06-08 21:32:00,64.0,44.0,-100.00,South,172,5.0,8.0,47,0.00,,,0.00,,2013-06-09 03:32:00,
2013-06-08 21:43:00,64.0,44.0,-100.00,South,172,5.0,8.0,47,0.00,,,0.00,,2013-06-09 03:43:00,
2013-06-08 21:53:00,64.0,44.0,-100.00,South,172,5.0,8.0,47,0.00,,,0.00,,2013-06-09 03:53:00,
2013-06-08 22:12:00,53.0,45.0,-100.00,WSW,241,1.0,2.0,72,0.00,,,0.00,,2013-06-09 04:12:00,
2013-06-08 22:22:00,53.0,45.0,-100.00,WSW,241,1.0,2.0,72,0.00,,,0.00,,2013-06-09 04:22:00,
2013-06-08 23:12:00,48.0,44.0,-100.00,SSE,153,0.0,1.0,84,0.00,,,0.00,,2013-06-09 05:12:00,
2013-06-08 23:22:00,48.0,44.0,-100.00,SSE,153,0.0,1.0,84,0.00,,,0.00,,2013-06-09 05:22:00,